Springfield, OH

11:28 AM EDT on August 17, 2017 (GMT -0400)
Springfield-Beckley Municipal

Weather History for KSGH - April, 2013

Change the Weather History Date:

Monday, April 29, 2013

  Actual Average (KFFO) Record (KFFO)
Temperature  
Mean Temperature 57 °F -  
Max Temperature 62 °F 66 °F 77 °F (2004)
Min Temperature 52 °F 44 °F 35 °F (1997)
Degree Days  
Heating Degree Days 8    
Growing Degree Days 7 (Base 50)    
Moisture  
Dew Point 53 °F    
Average Humidity 90    
Maximum Humidity 100    
Minimum Humidity 68    
Precipitation  
Precipitation 0.03 in - - ()
Sea Level Pressure  
Sea Level Pressure 29.97 in    
Wind  
Wind Speed 6 mph (SW)    
Max Wind Speed 9 mph    
Max Gust Speed -    
Visibility 5 miles    
Events Rain    
Averages and records for this station are not official NWS values.
T = Trace of Precipitation, MM = Missing Value Source: NWS Daily Summary

Daily Weather History Graph

Daily Weather History Graph

Search for Another Location

Airport or City:

Trip Planner

Search our weather history database for the weather conditions in past years. The results will help you decide how hot, cold, wet, or windy it might be!

Date:

Astronomy

Apr. 29, 2013 Rise Set
Actual Time 6:37 AM EDT 8:28 PM EDT
Civil Twilight 6:08 AM EDT 8:57 PM EDT
Nautical Twilight 5:33 AM EDT 9:32 PM EDT
Astronomical Twilight 4:55 AM EDT 10:10 PM EDT
Moon No Moon Rise 9:57 AM EDT (4/29)
Length of Visible Light 14h 48m
Length of Day
13h 50m
Waning Gibbous, 80% of the Moon is Illuminated
Apr 29
Waning Gibbous
May 2
Last Quarter
May 9
New
May 18
First Quarter
May 25
Full

Hourly Weather History & Observations

Time (EDT) Temp. Dew Point Humidity Pressure Visibility Wind Dir Wind Speed Gust Speed Precip Events Conditions
12:04 AM 55.4 °F 53.6 °F 94% 29.90 in 9.0 mi SW 5.8 mph - N/A   Mostly Cloudy
12:56 AM 54.0 °F 52.0 °F 93% 29.90 in 9.0 mi South 6.9 mph - N/A   Overcast
1:26 AM 53.6 °F 51.8 °F 94% 29.91 in 9.0 mi SW 5.8 mph - N/A   Overcast
1:56 AM 54.9 °F 52.9 °F 93% 29.90 in 9.0 mi SW 6.9 mph - N/A   Overcast
2:56 AM 54.0 °F 52.0 °F 93% 29.91 in 9.0 mi WSW 6.9 mph - N/A   Overcast
3:34 AM 53.6 °F 51.8 °F 94% 29.91 in 8.0 mi SW 4.6 mph - N/A   Overcast
3:56 AM 54.0 °F 52.0 °F 93% 29.91 in 8.0 mi SW 6.9 mph - N/A   Overcast
4:49 AM 53.6 °F 51.8 °F 94% 29.93 in 5.0 mi SW 4.6 mph - N/A   Overcast
4:56 AM 54.0 °F 52.9 °F 96% 29.93 in 5.0 mi SSW 5.8 mph - N/A   Overcast
5:10 AM 53.6 °F 53.6 °F 100% 29.93 in 2.0 mi SW 6.9 mph - 0.00 in Rain Light Rain
5:15 AM 53.6 °F 53.6 °F 100% 29.93 in 1.2 mi SW 5.8 mph - 0.01 in Rain Rain
5:21 AM 53.6 °F 53.6 °F 100% 29.93 in 1.0 mi SW 6.9 mph - 0.02 in Rain Light Rain
5:30 AM 53.6 °F 53.6 °F 100% 29.93 in 1.5 mi SW 4.6 mph - 0.02 in Rain Light Rain
5:35 AM 53.6 °F 53.6 °F 100% 29.93 in 2.5 mi SW 5.8 mph - 0.02 in Rain Light Rain
5:44 AM 53.6 °F 53.6 °F 100% 29.94 in 4.0 mi SW 5.8 mph - 0.02 in   Overcast
5:56 AM 52.9 °F 52.9 °F 100% 29.94 in 4.0 mi SW 5.8 mph - 0.02 in   Overcast
6:39 AM 53.6 °F 53.6 °F 100% 29.95 in 2.5 mi SW 6.9 mph - N/A   Overcast
6:56 AM 52.9 °F 52.9 °F 100% 29.95 in 2.5 mi SW 5.8 mph - N/A   Overcast
7:26 AM 53.6 °F 53.6 °F 100% 29.96 in 1.8 mi WSW 5.8 mph - N/A   Overcast
7:39 AM 53.6 °F 53.6 °F 100% 29.97 in 2.0 mi SW 6.9 mph - N/A   Overcast
7:56 AM 54.0 °F 52.9 °F 96% 29.97 in 2.0 mi WSW 6.9 mph - N/A   Overcast
8:05 AM 53.6 °F 53.6 °F 100% 29.98 in 1.5 mi WSW 5.8 mph - 0.00 in Rain Light Rain
8:13 AM 53.6 °F 53.6 °F 100% 29.98 in 1.0 mi WSW 6.9 mph - 0.01 in   Overcast
8:21 AM 53.6 °F 53.6 °F 100% 29.98 in 1.5 mi WSW 5.8 mph - 0.01 in Rain Light Rain
8:28 AM 53.6 °F 53.6 °F 100% 29.98 in 2.0 mi WSW 5.8 mph - 0.01 in Rain Light Rain
8:42 AM 55.4 °F 53.6 °F 94% 29.98 in 2.5 mi West 6.9 mph - 0.01 in   Overcast
8:56 AM 54.9 °F 54.0 °F 97% 29.99 in 2.5 mi WSW 8.1 mph - 0.01 in   Overcast
9:16 AM 55.4 °F 53.6 °F 94% 29.99 in 3.0 mi WSW 6.9 mph - N/A   Overcast
9:56 AM 55.9 °F 54.0 °F 93% 29.99 in 3.0 mi West 8.1 mph - N/A   Overcast
10:27 AM 55.4 °F 53.6 °F 94% 30.00 in 2.5 mi West 6.9 mph - 0.00 in Rain Light Rain
10:35 AM 55.4 °F 53.6 °F 94% 30.00 in 3.0 mi West 8.1 mph - 0.00 in Rain Light Rain
10:40 AM 55.4 °F 53.6 °F 94% 30.00 in 4.0 mi West 6.9 mph - 0.00 in Rain Light Rain
10:56 AM 56.8 °F 54.0 °F 90% 30.00 in 4.0 mi WSW 8.1 mph - 0.00 in   Overcast
11:07 AM 57.2 °F 53.6 °F 88% 30.00 in 4.0 mi WSW 6.9 mph - N/A   Mostly Cloudy
11:56 AM 57.9 °F 54.0 °F 87% 30.01 in 6.0 mi WSW 9.2 mph - N/A   Overcast
12:56 PM 59.0 °F 52.9 °F 80% 30.01 in 7.0 mi West 9.2 mph - N/A   Overcast
1:35 PM 60.8 °F 53.6 °F 77% 30.00 in 7.0 mi West 8.1 mph - N/A   Mostly Cloudy
1:56 PM 59.9 °F 52.9 °F 78% 29.99 in 8.0 mi West 8.1 mph - N/A   Mostly Cloudy
2:17 PM 60.8 °F 53.6 °F 77% 30.00 in 8.0 mi West 6.9 mph - N/A   Overcast
2:56 PM 61.0 °F 52.0 °F 72% 29.99 in 8.0 mi WSW 6.9 mph - N/A   Overcast
3:07 PM 62.6 °F 51.8 °F 68% 29.99 in 8.0 mi WSW 5.8 mph - N/A   Mostly Cloudy
3:24 PM 60.8 °F 53.6 °F 77% 29.99 in 7.0 mi WSW 8.1 mph - N/A   Mostly Cloudy
3:56 PM 61.9 °F 52.0 °F 70% 29.98 in 7.0 mi West 6.9 mph - N/A   Overcast
4:56 PM 61.9 °F 52.9 °F 72% 29.98 in 8.0 mi West 6.9 mph - N/A   Overcast
5:56 PM 61.9 °F 52.0 °F 70% 29.98 in 8.0 mi SW 8.1 mph - N/A   Overcast
6:56 PM 61.0 °F 50.9 °F 69% 29.98 in 8.0 mi SSW 6.9 mph - N/A   Overcast
7:56 PM 59.0 °F 50.9 °F 74% 29.99 in 8.0 mi SSW 5.8 mph - N/A   Overcast
8:56 PM 57.9 °F 50.9 °F 77% 29.99 in 9.0 mi South 4.6 mph - N/A   Mostly Cloudy
9:56 PM 55.9 °F 50.9 °F 83% 30.00 in 8.0 mi South 4.6 mph - N/A   Clear
10:56 PM 52.9 °F 50.9 °F 93% 30.00 in 8.0 mi SSE 8.1 mph - N/A   Clear
11:56 PM 54.0 °F 50.9 °F 89% 29.99 in 7.0 mi South 6.9 mph - N/A   Clear